Home   Weather   Völkermarkt   Past weeks

Flag for Austria Past Weather in Völkermarkt, Carinthia, Austria — Yesterday and Last 2 Weeks

Now
72 °F

Overcast.


Feels Like: 77 °F
Forecast: 51 / 72 °F
Wind: N/A

Location: Klagenfurt-Flughafen

Current Time: May 24, 2017 at 5:52:31 pm

Latest Report: May 24, 2017 at 5:00 pm


Visibility: 19 mi

Pressure: 29.96 "Hg

Humidity: 45%

Dew Point: 50 °F

Location of VölkermarktLocation

Past Weather in Völkermarkt — Graph

°F

Völkermarkt Temperature Yesterday

Maximum temperature yesterday: 76 °F (at 6:00 pm)
Minimum temperature yesterday: 52 °F (at 3:00 am)
Average temperature yesterday: 61 °F

High & Low Weather Summary for the Past Weeks

 TemperatureHumidityPressure
High78 °F (May 19, 3:00 pm)96% (May 23, 12:00 am)30.43 "Hg (May 23, 12:00 am)
Low42 °F (May 11, 6:00 am)27% (May 19, 5:00 pm)29.63 "Hg (May 12, 4:00 pm)
Average61 °F65%30.03 "Hg
* Reported May 9 4:00 pm — May 24 4:00 pm, Völkermarkt. Weather by CustomWeather, © 2017

Note: Actual official high and low records may vary slightly from our data, if they occured in-between our weather recording intervals... More about our weather records

Advertising

Völkermarkt Weather History for the Previous 24 Hours

Scroll right to see more
 ConditionsComfort  
Time TempWeatherWind HumidityBarometerVisibility
4:00 pm
Wed, May 24
72 °FOvercast.N/A45%29.96 "Hg19 mi
3:00 pm69 °FOvercast.N/A57%29.99 "Hg25 mi
2:00 pm68 °FOvercast.N/A63%30.01 "Hg22 mi
1:00 pm66 °FOvercast.N/A63%30.03 "Hg19 mi
12:00 pm65 °FOvercast.N/A63%30.05 "Hg16 mi
11:00 am63 °FOvercast.N/A67%30.07 "Hg25 mi
10:00 am61 °FOvercast.N/A72%30.08 "Hg28 mi
9:00 am59 °FOvercast.N/A80%30.09 "Hg22 mi
8:00 am58 °FOvercast.N/A82%30.09 "Hg25 mi
7:00 am56 °FOvercast.N/A87%30.08 "Hg28 mi
6:00 am56 °FOvercast.N/A90%30.09 "Hg28 mi
5:00 am56 °FOvercast.N/A89%30.09 "Hg22 mi
4:00 am56 °FPassing clouds.N/A87%30.09 "Hg28 mi
3:00 am57 °FOvercast.N/A88%30.10 "Hg28 mi
2:00 am58 °FLight rain. Overcast.N/A79%30.11 "Hg13 mi
1:00 am58 °FLight rain. Overcast.N/A82%30.11 "Hg22 mi
12:00 am59 °FOvercast.N/A78%30.09 "Hg31 mi
11:00 pm
Tue, May 23
65 °FOvercast.3 mph51%30.07 "Hg28 mi
10:00 pm59 °FPassing clouds.N/A90%30.06 "Hg25 mi
9:00 pm58 °FPassing clouds.N/A88%30.03 "Hg25 mi
8:00 pm61 °FScattered clouds.N/A81%30.01 "Hg22 mi
7:00 pm74 °FScattered clouds.N/A49%29.94 "Hg25 mi
6:00 pm76 °FScattered clouds.N/A39%29.93 "Hg14 mi
5:00 pm74 °FScattered clouds.N/A38%29.94 "Hg19 mi
Weather by CustomWeather, © 2017

See weather overviewHow to use our weather pages